Location: Newark
(34.1333°N, 7.9667°W)
Time: 13:39:03
(UTC+00:00)

Transit 2A Rocket - Visible Passes

Search period start: 22 June 2021 00:00
Search period end: 02 July 2021 00:00
Orbit: 592 x 911 km, 66.7° (Epoch: 21 June)

Date Brightness Start Highest point End Pass type
(mag) Time Alt. Az. Time Alt. Az. Time Alt. Az.
22 Jun 6.6 00:14:11 24° NNE 00:14:11 24° NNE 00:16:00 10° NNE visible
22 Jun 6.9 23:32:15 17° NE 23:32:15 17° NE 23:33:18 10° NE visible
23 Jun 7.1 01:12:06 13° NW 01:12:06 13° NW 01:14:05 10° NNW visible
24 Jun 6.7 00:30:06 22° NNW 00:30:06 22° NNW 00:32:38 10° N visible
24 Jun 6.3 23:48:02 30° N 23:48:02 30° N 23:50:31 10° NNE visible
25 Jun 6.1 23:05:53 28° NNE 23:05:53 28° NNE 23:08:01 10° NNE visible
26 Jun 6.4 22:23:37 20° NE 22:23:37 20° NE 22:25:10 10° NE visible
27 Jun 7.0 00:03:27 16° WNW 00:03:49 17° NW 00:06:40 10° NNW visible
27 Jun 6.7 21:41:13 12° ENE 21:41:13 12° ENE 21:41:45 10° ENE visible
27 Jun 6.1 23:21:02 30° NW 23:21:02 30° NW 23:24:52 10° N visible
28 Jun 4.9 22:38:27 61° NW 22:38:27 61° NW 22:42:36 10° NNE visible
29 Jun 4.4 21:55:35 62° ESE 21:55:41 62° ESE 21:59:59 10° NNE visible
29 Jun 7.5 23:37:16 10° WNW 23:38:40 11° NW 23:40:04 10° NNW visible
30 Jun 5.3 21:12:16 27° SE 21:13:12 29° ESE 21:16:59 10° NE visible
30 Jun 6.9 22:52:28 10° WSW 22:55:43 21° NW 22:59:03 10° N visible
01 Jul 6.2 20:28:32 10° SE 20:30:50 14° ESE 20:33:09 10° ENE visible
01 Jul 5.8 22:08:54 10° SW 22:12:54 39° WNW 22:17:03 10° N visible
